Regional Weather Roundup
Issued by NWS San Angelo, TX

Home | Current Version | Previous Version | Text Only | Print | Product List | Glossary On
Versions: 1 2 3 4 5 6 7 8 9 10 11 12 13 14 15 16 17 18 19 20 21 22 23 24 25 26 27 28 29 30 31 32 33 34 35 36 37 38 39 40 41 42 43 44 45 46 47 48 49 50
000
ASUS44 KSJT 271511
RWRSJT
WEST CENTRAL TEXAS REGIONAL WEATHER ROUNDUP
NATIONAL WEATHER SERVICE SAN ANGELO TX
1000 AM CDT WED JUL 27 2016

NOTE: "FAIR" INDICATES FEW OR NO CLOUDS BELOW 12,000 FEET WITH NO
SIGNIFICANT WEATHER AND/OR OBSTRUCTIONS TO VISIBILITY.

TXZ049-054-064>066-071>073-076>078-098-099-113-114-127-128-139-140-
154-155-168>170-271600
...LOCATIONS ACROSS WEST CENTRAL TEXAS...

CITY           SKY/WX    TMP DP  RH WIND       PRES   REMARKS
SAN ANGELO     SUNNY     82  69  64 S7        30.04R
ABILENE        SUNNY     87  68  52 CALM      30.03R
DYESS AFB      SUNNY     89  68  49 VRB2      30.01R
JUNCTION       CLOUDY    79  70  74 CALM      30.05R
SWEETWATER     SUNNY     85  65  52 SW6       30.08S
BROWNWOOD      SUNNY     82  70  65 SW7       30.02S
COLEMAN        SUNNY     84  68  58 SW3       30.03S
SONORA         SUNNY     79  68  69 CALM      30.10S
OZONA          FAIR      73  66  78 CALM      30.10R
BRADY          NOT AVBL
$$

TEXAS PANHANDLE/OKLAHOMA PANHANDLE

CITY           SKY/WX    TMP DP  RH WIND       PRES   REMARKS
AMARILLO       SUNNY     81  66  60 SE10      30.12R
BORGER         SUNNY     83  67  58 SE7       30.09S
CANADIAN       SUNNY     84  72  66 S3        30.05S
DALHART        LGT RAIN  75  64  68 E7        30.14F
DUMAS          MOSUNNY   84  63  49 SW10      30.12S
GUYMON         NOT AVBL
HEREFORD       MOSUNNY   83  63  50 SW5       30.13F
PAMPA          SUNNY     83  68  59 S6        30.11S
PERRYTON       MOSUNNY   83  69  62 S7        30.08F
$$

SOUTHERN PANHANDLE/SOUTH PLAINS/ROLLING PLAINS

CITY           SKY/WX    TMP DP  RH WIND       PRES   REMARKS
LUBBOCK        MOSUNNY   84  63  49 CALM      30.10R
SNYDER           N/A    N/A N/A N/A W5        30.07R
CHILDRESS      SUNNY     84  69  60 S5        30.02F
SEMINOLE       SUNNY     81  62  52 NE3       30.12S
$$

PERMIAN BASIN

CITY           SKY/WX    TMP DP  RH WIND       PRES   REMARKS
MIDLAND        SUNNY     80  68  66 S3        30.08S
ODESSA         SUNNY     79  67  66 CALM      30.09S
WINK           SUNNY     79  67  66 SE6       30.06R
$$

FAR WEST/SOUTHWEST MOUNTAINS/TRANS PECOS

CITY           SKY/WX    TMP DP  RH WIND       PRES   REMARKS
ALPINE         CLOUDY    74  62  64 CALM      30.22R
DRYDEN           N/A     77  70  79 NE5       30.04R
EL PASO        CLOUDY    77  64  64 N7        30.13R
FORT STOCKTON  SUNNY     81  64  56 SE6       30.08R
GUADALUPE PASS CLOUDY    73  58  59 E8        30.24S
MARFA          CLOUDY    76  60  57 NE5       30.20S
PECOS          CLOUDY    78  68  71 CALM      30.06F
$$

DALLAS/FORT WORTH METROPLEX

CITY           SKY/WX    TMP DP  RH WIND       PRES   REMARKS
DFW AIRPORT    MOSUNNY   88  73  61 SE5       29.95S
FTW MEACHAM    SUNNY     88  72  58 CALM      29.96S
DAL-EXECUTIVE  SUNNY     86  72  62 VRB5      29.96S
GRAND PRAIRIE  SUNNY     84  72  65 SE7       29.98S
ADDISON        MOSUNNY   88  72  58 SE6       29.96
MESQUITE       SUNNY     84  75  74 S5        29.96F
LANCASTER      SUNNY     87  73  64 S5        29.97S
$$

NORTH CENTRAL TEXAS

CITY           SKY/WX    TMP DP  RH WIND       PRES   REMARKS
SHRMAN/DENISON CLOUDY    84  77  79 CALM      29.98S
GAINESVILLE    PTSUNNY   81  76  84 CALM      29.99S
BRIDGEPORT     SUNNY     85  73  67 CALM      29.99S
DENTON         CLOUDY    85  74  69 CALM      29.96S
WAXAHACHIE     SUNNY     84  74  72 SE5       29.98S
GRANBURY       SUNNY     88  72  58 CALM      29.98F
$$

WESTERN NORTH TEXAS

CITY           SKY/WX    TMP DP  RH WIND       PRES   REMARKS
WICHITA FALLS  PTSUNNY   80  72  76 E3        29.98S
VERNON         MOSUNNY   84  68  57 E3        30.00S
BRECKENRIDGE   SUNNY     89  66  46 CALM      29.99S
COMANCHE       CLOUDY    81  72  72 SW7       30.02S
$$

CENTRAL AND SOUTH CENTRAL TEXAS

CITY           SKY/WX    TMP DP  RH WIND       PRES   REMARKS
AUSTIN/BERGSTM TSTM      72  72 100 CALM      30.02R VSB 1/2
WACO           SUNNY     87  71  58 SW9       29.98S
HILLSBORO      SUNNY     83  72  70 S6        29.98S
TEMPLE         CLOUDY    84  74  71 SW8       30.01R
KILLEEN-GRAY   MOSUNNY   83  72  68 W6        29.99F
FORT HOOD      CLOUDY    83  71  69 SW8       29.98S
GEORGETOWN     MOSUNNY   75  70  83 SW5       30.00F
LAGO VISTA     LGT RAIN  76  73  90 CALM      30.02F
SAN MARCOS     CLOUDY    75  75 100 NE5       30.03R FOG
NEW BRAUNFELS  CLOUDY    80  76  87 CALM      29.98F FOG
RANDOLPH AFB   CLOUDY    79  79  99 E5        30.00R
SAN ANTONIO    CLOUDY    81  74  79 S10       30.00R
STINSON        CLOUDY    82  76  81 VRB3      29.97S
PLEASANTON     NOT AVBL
LA GRANGE        N/A     83  75  76 N6        29.99R
GIDDINGS       LGT RAIN  77  74  92 CALM      30.04S
$$

EAST TEXAS

CITY           SKY/WX    TMP DP  RH WIND       PRES   REMARKS
PARIS          SUNNY     84  70  61 W6        29.96F
CLARKSVILLE    NOT AVBL
TYLER          SUNNY     85  73  67 W5        29.97S
LONGVIEW       SUNNY     85  75  72 W6        29.96S
PALESTINE      MOSUNNY   82  75  79 S6        30.00R
NACOGDOCHES    SUNNY    N/A N/A N/A W9        29.97S
$$

TEXAS HILL COUNTRY AND EDWARDS PLATEAU

CITY           SKY/WX    TMP DP  RH WIND       PRES   REMARKS
LLANO          PTSUNNY   82  75  78 SW6       30.05S
HORSESHOE BAY  CLOUDY    80  73  77 CALM      30.02F
KERRVILLE      CLOUDY    76  73  90 CALM      30.04S FOG
FREDERICKSBRG  PTSUNNY   77  70  78 CALM      30.05S
ROCKSPRINGS    MOSUNNY   79  72  78 SE7       30.08F
HONDO          CLOUDY    79  75  87 SE5       30.01S
UVALDE         CLOUDY    77  75  94 E6        30.00S FOG
DEL RIO        CLOUDY    80  73  79 CALM      29.99R
$$

SOUTHEAST TEXAS

CITY           SKY/WX    TMP DP  RH WIND       PRES   REMARKS
COLLEGE STN    PTSUNNY   84  75  74 W7        29.99S
CALDWELL       MOSUNNY   82  73  74 CALM      30.02S
CROCKETT       MOSUNNY   82  77  83 S5        30.01S
BRENHAM        MOSUNNY   86  77  74 SW5       29.99F
HUNTSVILLE     LGT RAIN  80  75  84 SW8G18    30.00R
CONROE         CLOUDY    86  74  67 CALM      29.99R
HOUSTON BUSH   CLOUDY    84  75  74 VRB6      29.99R
HOUSTON HOBBY  TSTM      79  73  83 SW14      29.99R
PERLAND        CLOUDY    83  71  67 SW9G20    30.02R
WHARTON        CLOUDY    81  71  73 S5        30.00F
$$

THE UPPER TEXAS COAST

CITY           SKY/WX    TMP DP  RH WIND       PRES   REMARKS
ORANGE         RAIN      74  71  90 W8        30.07R
PORT ARTHUR    HVY RAIN  73 N/A N/A SW6       30.07R VSB 1
GALVESTON      CLOUDY    80  77  90 SW6       30.02R
ANGLETON       CLOUDY    81  71  71 VRB3      30.01R
BAY CITY       CLOUDY    78  73  83 SE6       29.99F
$$

TEXAS COASTAL BEND, RIO GRANDE PLAINS DEEP SOUTH TEXAS

CITY           SKY/WX    TMP DP  RH WIND       PRES   REMARKS
VICTORIA       CLOUDY    83  78  85 CALM      29.98R
BEEVILLE       FAIR      75  72  90 SE9       29.97S
ROCKPORT       CLOUDY    86  78  77 S8        29.96R
PORT ARANSAS   CLOUDY    86  79  80 S13       29.97R
PORT LAVACA    CLOUDY    83  81  94 CALM      29.98S
CORPUS CHRISTI CLOUDY    87  76  69 S16G23    29.96R
KINGSVILLE NAS CLOUDY    86  80  82 S13       29.96R
COTULLA        CLOUDY    82  76  81 SE8       29.97R
LAREDO         CLOUDY    81  76  84 SE5       29.96R
BROWNSVILLE    MOSUNNY   90  75  61 SE16      29.95R
PORT ISABEL    MOSUNNY   89  75  63 SE16G24   29.95R
HEBBRONVILLE   CLOUDY    83  73  71 S10G17    29.98R
MCALLEN        CLOUDY    87  74  64 S14       29.95R
WESLACO        PTSUNNY   84  31  14 S13G23    29.94S
FALFURRIAS     CLOUDY    87  73  62 S12       29.95R
EDINBURG       CLOUDY    90  72  55 S14G20    29.95R
$$



USA.gov is the U.S. government's official web portal to all federal, state and local government web resources and services.